sat.trackr.live / text

‹ back to catalog

ONEWEB-0221

NORAD 48789 · 2021-045Y

PAYLOAD ACTIVE UNKNOWN

§ Identity

Operator
Country
UK
Launch date
2021-05-28
Launch site
VOSTO
Launch vehicle
Mass (kg)
RCS (m²)

Purposes: comms

External: N2YO · Heavens-Above · Gunter

§ Orbital elements

Epoch: 2026-09-19T22:26:54.048192Z

Period
109.46 min
Inclination
87.8996°
Eccentricity
0.0001937
Mean motion
13.15547829 rev/d
Perigee alt
1,200.3 km
Apogee alt
1,203.2 km
Semi-major
7,579.9 km
B*
3.5259e-4
RAAN
240.3046°
Arg perigee
77.3545°
Mean anomaly
282.7802°
Rev number
25,683

§ Raw data

ONEWEB-02211 48789U 21045Y   26262.93534778  .00000146  00000+0  35259-3 0  99992 48789  87.8996 240.3046 0001937  77.3545 282.7802 13.15547829256833

JSON: /api/v1/satellites/48789 · /tle

For live sub-satellite position, see the globe view (requires WebGL).

§ Visibility from observer

Set your observer location to see the next 7 days of passes ≥ 10°. The values pass through the URL so the page stays shareable.

No JS? Fill the form by hand. The geolocation button needs JavaScript.